Regional Weather Roundup
Issued by NWS

Home | Current Version | Previous Version | Graphics & Text | Print | Product List | Glossary On
Versions: 1 2 3 4 5 6 7 8 9 10 11 12 13 14 15 16 17 18 19 20 21 22 23 24 25 26 27 28 29 30 31 32 33 34 35 36 37 38 39 40 41 42 43 44 45 46 47 48 49 50
000
ASUS43 KTOP 171808
RWRKS

WEATHER ROUNDUP FOR KANSAS
NATIONAL WEATHER SERVICE GOODLAND KS
1200 PM CST WED DEC 17 2014

NOTE:  "FAIR" INDICATES FEW OR NO CLOUDS BELOW 12,000 FEET WITH NO
SIGNIFICANT WEATHER AND/OR OBSTRUCTIONS TO VISIBILITY.

KSZ001>006-013>018-027>032-041>047-171900-
NORTHWEST KANSAS

CITY           SKY/WX    TMP DP  RH WIND       PRES   REMARKS
GOODLAND       FOG       24  23  96 E8        30.08F VSB 1/4
6HR MIN TEMP:  22; 6HR MAX TEMP:  24;

HAYS           CLOUDY    28  18  64 E13       30.19F WCI  18
HILL CITY      CLOUDY    26  22  84 E12       30.19F WCI  16
6HR MIN TEMP:  22; 6HR MAX TEMP:  26;

RUSSELL        CLOUDY    29  24  82 E12       30.20F WCI  19
6HR MIN TEMP:  24; 6HR MAX TEMP:  29;

$$

KSZ061>065-074>080-084>089-171900-
SOUTHWEST KANSAS

CITY           SKY/WX    TMP DP  RH WIND       PRES   REMARKS
DODGE CITY     FAIR      36  26  67 SE20      30.11F WCI  25
6HR MIN TEMP:  29; 6HR MAX TEMP:  37;

ELKHART          N/A     46  28  49 S12         N/A
GARDEN CITY    FAIR      38  28  67 S16       30.06F WCI  29
6HR MIN TEMP:  28; 6HR MAX TEMP:  38;

GREAT BEND     FAIR      34  25  69 SE14      30.20F WCI  24
LIBERAL        FAIR      46  30  53 S16       30.06F
PRATT          CLOUDY    32  28  86 SE10      30.18F WCI  24
$$

KSZ066>073-081>083-090>101-171900-
SOUTHEAST KANSAS

CITY           SKY/WX    TMP DP  RH WIND       PRES   REMARKS
CHANUTE        CLOUDY    29  25  85 E10       30.29F WCI  20
6HR MIN TEMP:  26; 6HR MAX TEMP:  29;

COFFEYVILLE    MIX PCPN  32  28  85 CALM      30.32S
6HR MIN TEMP:  29; 6HR MAX TEMP:  32; 6HR PCP: TRACE;

HUTCHINSON     CLOUDY    31  24  75 SE10      30.24F WCI  22
6HR MIN TEMP:  27; 6HR MAX TEMP:  31;

MEDICINE LODGE   N/A     34  27  75 SE9G17    30.18F
NEWTON         CLOUDY    28  19  69 SE12      30.25F WCI  18
PARSONS        CLOUDY    31  27  85 VRB3      30.31F
6HR MIN TEMP:  29; 6HR MAX TEMP:  31; 6HR PCP: TRACE;

WICHITA INTL   CLOUDY    33  24  69 E7        30.24F
6HR MIN TEMP:  29; 6HR MAX TEMP:  33;

WICHITA JABRA  CLOUDY    30  24  78 E8        30.24F
6HR MIN TEMP:  26; 6HR MAX TEMP:  30;

WICHITA MCCONL CLOUDY    32  24  73 E6        30.25F
WINFIELD       CLOUDY    33  26  75 SE10      30.25F WCI  25
6HR MIN TEMP:  30; 6HR MAX TEMP:  33;

$$

KSZ007>012-019>026-033>040-048>060-102>105-171900-
NORTHEAST KANSAS

CITY           SKY/WX    TMP DP  RH WIND       PRES   REMARKS
CONCORDIA      CLOUDY    25  19  78 E10       30.26F WCI  15
6HR MIN TEMP:  23; 6HR MAX TEMP:  26;

EMPORIA        CLOUDY    27  24  89 E7        30.28F
6HR MIN TEMP:  23; 6HR MAX TEMP:  27;

LAWRENCE       CLOUDY    27  20  75 E3        30.33F
6HR MIN TEMP:  23; 6HR MAX TEMP:  27;

MANHATTAN      CLOUDY    26  18  71 E6        30.31F
6HR MIN TEMP:  24; 6HR MAX TEMP:  26;

MARYSVILLE     CLOUDY    28  18  64 E5        30.30F
OLATHE IND     CLOUDY    28  22  78 CALM      30.32F
6HR MIN TEMP:  24; 6HR MAX TEMP:  28; 6HR PCP: TRACE;

OLATHE EXE     CLOUDY    28  21  75 CALM      30.30F
6HR MIN TEMP:  25; 6HR MAX TEMP:  28;

SALINA         CLOUDY    28  22  78 E7        30.27F
6HR MIN TEMP:  26; 6HR MAX TEMP:  28;

TOPEKA BILLARD CLOUDY    28  19  69 CALM      30.34F
6HR MIN TEMP:  24; 6HR MAX TEMP:  28;

TOPEKA FORBES  CLOUDY    27  19  72 SE3       30.31F
6HR MIN TEMP:  24; 6HR MAX TEMP:  28;

$$



USA.gov is the U.S. government's official web portal to all federal, state and local government web resources and services.